Terminal Aerodrome Forecast
Issued by NWS

Home | Current Version | Previous Version | Graphics & Text | Print | Product List | Glossary On
Versions: 1 2 3 4 5 6 7 8 9 10 11 12 13 14 15 16 17 18 19 20 21
000
FTUS43 KTOP 020559 AAA
TAFFOE
TAF AMD
KFOE 020559Z 0206/0224 05008KT P6SM SCT015 SCT250
     FM021100 02006KT 5SM BR BKN012
     FM021700 03010KT P6SM VCTS FEW008 BKN018CB=

USA.gov is the U.S. government's official web portal to all federal, state and local government web resources and services.